Home > Time Zones > World Clock > Weather > Italy > Monza > Past weeks

Flag for Italy Weather past 2 weeks in Monza, Italy

Now
64 °F

Light rain. Fog.


Feels Like: 64 °F
Forecast: 57 / 74 °F
Wind: 3 mph from West

Location: Milan / Linate

Current Time: Oct 1, 2014 at 2:58:26 AM

Latest Report: Oct 1, 2014 at 1:50 AM


Visibility: 2 mi

Pressure: 30.27 "Hg

Humidity: 100%

Dew point: 64 °F

Location of MonzaLocation

Historic Weather in Monza — Graph

°F

Monza temperature yesterday

Maximum temperature yesterday: 75 °F (at 4:20 PM)
Minimum temperature yesterday: 57 °F (at 5:50 AM)
Average temperature yesterday: 66 °F

Past Weeks' High & Low Weather Summary

 TemperatureHumidityPressure
High84 °F (Sep 22, 2:50 PM)100% (Sep 20, 1:20 AM)30.42 "Hg (Sep 20, 1:20 AM)
Low54 °F (Sep 24, 5:50 AM)14% (Sep 22, 2:50 PM)29.74 "Hg (Sep 22, 5:20 PM)
Average66 °F73%30.10 "Hg
* Reported Sep 16 1:20 AM — Oct 1 1:50 AM, Monza, Weather by CustomWeather, © 2014

Note: Actual official high and low records may vary slightly from our data, if they occured in-between our weather recording intervals... More about our weather records

Advertising

Monza weather history for previous 24 hours

 ConditionsComfort  
Time TempWeatherWind HumidityBarometerVisibility
1:50 AM
Oct 1
64 °FLight rain. Fog.3 mph100%30.27 "Hg2 mi
1:20 AM64 °FRain. Fog.5 mph100%30.27 "Hg2 mi
12:50 AM64 °FRain. Fog.3 mph100%30.27 "Hg2 mi
12:20 AM66 °FLight rain. Fog.3 mph94%30.27 "Hg2 mi
11:50 PM
Sep 30
66 °FLight rain. Fog.5 mph88%30.27 "Hg3 mi
11:20 PM66 °FLight rain. Passing clouds.2 mph88%30.27 "Hg4 mi
10:50 PM68 °FLight rain. Passing clouds.No wind78%30.27 "Hg5 mi
10:20 PM68 °FLight rain. Passing clouds.2 mph78%30.27 "HgN/A
9:50 PM70 °FPassing clouds.2 mph69%30.27 "HgN/A
9:20 PM70 °FPassing clouds.2 mph69%30.27 "HgN/A
8:50 PM70 °FPassing clouds.2 mph69%30.27 "HgN/A
8:20 PM68 °FPassing clouds.2 mph78%30.27 "HgN/A
7:50 PM70 °FLight rain. Partly sunny.1 mph73%30.27 "HgN/A
7:20 PM70 °FPartly sunny.2 mph69%30.27 "HgN/A
6:50 PM72 °FScattered clouds.2 mph65%30.27 "HgN/A
6:20 PM72 °FScattered clouds.5 mph61%30.27 "HgN/A
5:50 PM73 °FScattered clouds.2 mph61%30.27 "HgN/A
5:20 PM72 °FScattered clouds.3 mph65%30.27 "HgN/A
4:50 PM73 °FScattered clouds.3 mph57%30.27 "HgN/A
4:20 PM75 °FScattered clouds.3 mph54%30.27 "HgN/A
3:50 PM73 °FScattered clouds.5 mph57%30.27 "HgN/A
3:20 PM73 °FScattered clouds.5 mph57%30.27 "Hg5 mi
2:50 PM73 °FScattered clouds.3 mph57%30.30 "Hg5 mi
2:20 PM73 °FScattered clouds.3 mph57%30.30 "Hg5 mi
1:50 PM73 °FFog.2 mph61%30.30 "Hg3 mi
1:20 PM72 °FFog.3 mph65%30.30 "Hg3 mi
12:50 PM72 °FLight rain. Fog.2 mph65%30.33 "Hg3 mi
12:20 PM70 °FFog.2 mph69%30.33 "Hg3 mi
11:50 AM68 °FFog.3 mph73%30.33 "Hg3 mi
11:20 AM68 °FFog.3 mph73%30.33 "Hg3 mi
10:50 AM68 °FFog.3 mph73%30.33 "Hg3 mi
10:20 AM64 °FFog.2 mph83%30.33 "Hg3 mi
9:50 AM64 °FFog.3 mph83%30.33 "Hg3 mi
9:20 AM63 °FFog.2 mph88%30.30 "Hg3 mi
8:50 AM63 °FFog.2 mph88%30.30 "Hg3 mi
8:20 AM63 °FFog.3 mph88%30.30 "Hg2 mi
7:50 AM61 °FFog.2 mph94%30.30 "Hg2 mi
7:20 AM59 °FFog.1 mph100%30.30 "Hg2 mi
6:50 AM59 °FFog.No wind100%30.30 "Hg2 mi
6:20 AM59 °FFog.No wind100%30.30 "Hg2 mi
5:50 AM57 °FFog.2 mph100%30.30 "Hg2 mi
5:20 AM59 °FFog.No wind100%30.30 "Hg2 mi
4:50 AM59 °FFog.1 mph100%30.30 "Hg3 mi
4:20 AM59 °FFog.No wind100%30.30 "Hg3 mi
3:50 AM59 °FFog.No wind100%30.30 "Hg3 mi
3:20 AM59 °FFog.No wind100%30.30 "Hg3 mi
2:50 AM59 °FFog.2 mph100%30.30 "Hg3 mi
2:20 AM59 °FFog.No wind100%30.30 "Hg3 mi
Weather by CustomWeather, © 2014

See weather overviewHow to use our weather pages